User: anonymous   Login
Location: Vancouver
(49.2500°N, 123.1330°W)
Time: 03:16:32
(UTC-07:00)
Language:

Oscar 11 - Orbit

View from above orbital plane
View from above orbital plane
View from above satellite
View from above satellite

Ground track
Ground track

The orbit data is extracted from the following two-line orbital elements,

1 14781U 84021B   15085.14105625  .00001112  00000-0  14577-3 0  9991
2 14781 097.8116 144.2330 0008228 351.7992 008.3086 14.82244492669723
Epoch (UTC): 26 March 2015 03:23:07
Eccentricity: 0.0008228
inclination: 97.8116°
perigee height: 616 km
apogee height: 628 km
right ascension of ascending node: 144.2330°
argument of perigee: 351.7992°
revolutions per day: 14.82244492
mean anomaly at epoch: 8.3086°
orbit number at epoch: 66972

The dashed part of the orbit path shows where the satellite is in the earth's shadow,  

DLR